RH
64 64 64 64 63 63 65 64 69 72 70 72 71 71 70 69 72 72 73 74 74 71 71 72 72 73 74 75 76 78 82 82 81 84 83 79 78 78 78 81 85 86 87 87 90 93 91 88 89 90 86 83 82 82 80 77 75 72 69 68 68 66 64 62 60 57 55 55 57 57 56 55 55 53 53 52 50 49 47 46 46 46 46 44 43 46 47 46 46 45 44 42 35 28 24 22 21
64 64 65 66 66 66 67 67 74 77 75 75 72 73 73 72 74 75 76 76 75 73 74 76 76 76 76 76 78 82 85 85 83 83 82 80 80 79 79 80 83 85 86 86 89 93 93 91 91 90 88 85 82 80 79 78 74 71 69 68 67 66 63 61 60 59 57 56 56 58 58 59 59 58 57 56 53 51 50 49 49 48 48 49 46 46 47 46 46 43 42 41 36 29 25 24 24
66 66 67 69 70 70 71 72 78 80 80 78 74 76 75 75 76 77 77 76 74 74 76 77 79 79 78 78 81 85 86 86 85 84 83 81 80 79 79 79 81 83 85 87 89 93 93 92 93 91 90 87 82 80 80 79 75 71 68 68 66 65 64 62 62 60 59 58 59 61 61 61 61 61 60 60 59 57 57 57 57 56 55 55 53 50 48 46 44 40 39 37 32 28 26 25 25
71 70 69 71 73 75 78 80 83 83 83 81 77 79 80 80 79 79 79 77 77 76 76 76 79 81 81 81 84 88 89 87 85 83 83 82 80 79 80 80 80 82 85 88 90 93 93 94 93 90 90 87 82 80 80 80 77 71 68 67 66 66 66 65 64 63 63 62 64 66 66 65 65 63 60 58 58 57 58 58 57 56 55 54 53 49 44 42 39 34 31 29 27 25 25 25 24
76 74 72 72 76 79 83 85 87 85 83 84 83 83 86 85 83 84 83 81 81 80 78 77 80 81 82 83 85 88 88 87 86 83 82 82 81 81 81 81 82 84 86 87 90 93 94 94 92 90 89 87 83 82 82 81 77 72 70 68 68 69 69 68 68 67 67 67 67 67 65 64 63 61 58 57 55 54 53 52 51 51 51 50 50 47 42 39 33 28 26 25 25 24 24 24 23
79 78 78 77 78 81 85 87 87 86 84 86 87 88 90 88 86 86 84 84 84 83 80 79 80 82 83 83 85 86 86 87 86 85 84 84 84 82 82 83 84 84 85 86 88 89 90 92 92 91 90 86 84 83 83 81 79 75 74 73 74 75 70 69 70 68 66 65 64 62 58 57 56 55 55 54 53 52 51 50 50 49 50 49 49 47 42 37 30 26 25 25 24 24 24 23 23
80 80 82 81 83 85 88 90 88 89 88 88 89 89 91 89 88 87 85 85 84 83 81 80 79 81 83 83 85 86 86 87 87 88 87 86 86 83 82 82 81 81 83 84 85 85 86 89 90 90 90 88 86 85 84 82 82 81 80 80 81 80 72 68 66 61 59 57 57 55 53 52 51 52 53 52 51 50 50 50 50 50 50 49 49 47 41 35 28 25 25 24 23 23 22 22 21
81 83 85 86 89 89 90 91 89 89 88 87 88 90 90 90 89 88 87 86 86 85 84 84 83 83 83 82 84 85 86 89 89 91 90 88 87 84 83 81 79 80 82 81 83 86 85 86 87 85 85 86 85 84 83 80 80 80 79 78 77 75 71 69 63 57 55 52 52 52 52 53 51 50 52 53 51 50 50 50 50 49 49 48 47 44 37 31 27 25 24 23 22 22 21 21 21
80 81 84 87 90 91 91 90 88 88 86 83 84 86 87 88 89 91 91 88 86 85 86 87 86 86 85 84 83 83 87 89 89 90 90 89 87 84 84 83 81 80 80 80 81 83 84 85 84 81 82 83 82 81 81 79 76 74 72 70 67 65 63 63 61 57 56 55 54 54 53 55 54 52 52 54 52 51 51 50 50 49 49 45 40 36 31 27 25 24 24 23 22 22 21 21 21
75 77 80 84 87 88 88 86 86 86 84 81 80 80 82 86 86 87 89 89 87 85 87 87 86 86 87 88 86 85 87 89 89 89 89 88 87 86 86 85 83 82 81 81 81 80 80 83 83 80 80 80 80 79 77 76 72 68 66 64 62 59 58 58 57 57 57 57 57 57 56 56 56 55 54 54 53 53 51 51 51 48 46 41 35 32 27 24 24 24 24 23 23 22 22 21 21
67 68 71 76 79 80 79 78 78 79 79 78 77 77 79 83 83 82 83 85 85 84 86 86 85 85 87 88 85 84 85 88 90 91 90 90 89 88 88 86 85 84 82 82 84 85 84 83 84 82 80 78 77 75 74 73 71 69 66 64 59 55 55 56 56 56 55 54 54 56 57 56 56 56 55 53 54 54 52 52 50 44 39 36 33 30 27 26 26 26 26 25 23 22 21 20 18
59 60 61 66 70 69 69 69 68 66 67 66 69 72 74 76 79 82 84 83 82 81 83 83 83 83 86 87 82 82 85 89 92 92 91 90 90 89 87 87 87 86 84 83 84 86 85 82 80 79 79 78 77 77 75 72 69 67 65 64 61 56 54 56 59 60 58 57 57 57 57 55 54 55 54 54 55 54 53 50 46 39 35 32 30 28 28 28 27 27 26 25 24 22 20 18 16
56 58 59 62 62 61 63 62 61 58 57 55 57 63 66 68 71 76 81 82 82 82 82 80 81 82 85 85 82 82 87 90 91 92 90 88 89 87 85 85 86 85 83 82 80 79 77 75 71 69 70 70 71 71 68 66 63 59 58 57 55 54 53 54 60 63 63 62 62 60 59 56 55 55 55 54 54 53 50 45 38 34 31 29 28 28 27 27 26 25 24 23 21 20 18 16 15
54 55 56 59 58 58 57 56 55 54 53 50 49 52 57 62 64 68 72 75 79 80 79 76 77 78 78 78 78 78 82 86 86 87 87 87 88 85 84 83 83 83 81 80 77 72 69 69 67 65 64 62 63 63 61 59 57 54 53 51 48 47 47 48 51 55 58 58 58 58 56 55 54 54 52 49 48 45 41 36 31 29 27 26 26 26 26 25 25 24 23 21 19 18 16 16 16
49 49 52 56 55 55 53 52 51 49 48 45 44 47 50 54 57 62 67 69 71 71 70 71 73 73 71 72 73 73 75 79 79 81 83 84 84 82 83 83 83 82 79 77 73 67 63 64 64 64 63 63 63 63 61 58 55 53 53 52 49 46 45 45 46 48 50 49 50 51 49 46 44 44 42 39 37 34 30 29 28 27 27 26 26 25 25 25 24 23 22 20 18 18 17 17 16
42 42 47 50 50 50 48 46 44 42 43 40 40 46 49 49 49 53 57 58 60 61 62 65 68 68 66 67 70 71 72 75 76 77 78 78 77 77 79 80 82 81 78 75 72 67 64 63 64 63 64 64 65 64 62 58 54 53 52 51 49 46 45 44 44 45 44 42 45 46 42 38 36 35 34 33 31 29 28 28 28 28 28 27 26 25 24 23 22 20 18 17 16 16 15 14 14
33 35 42 46 43 44 41 36 35 37 39 39 41 46 49 48 44 45 47 48 49 51 51 52 56 59 60 61 63 66 69 73 75 76 76 75 75 75 77 77 78 78 77 76 74 72 69 68 66 65 65 65 64 64 61 56 53 51 50 48 46 44 43 42 41 40 38 37 38 38 36 34 33 33 32 31 29 29 28 28 27 27 26 25 24 23 21 20 18 15 14 13 12 12 11 11 10
29 35 39 41 40 41 38 33 33 35 36 39 42 45 47 47 43 43 44 44 45 45 44 42 43 46 50 53 54 57 62 66 69 71 71 72 73 75 76 76 77 77 77 76 73 72 71 69 67 65 65 64 63 63 60 54 52 51 48 46 43 41 40 38 37 35 34 34 33 32 31 30 30 30 28 27 26 25 24 24 23 23 23 22 22 22 21 19 16 14 13 13 12 12 11 11 11
31 39 39 40 42 42 36 32 32 33 36 40 42 44 46 46 43 44 44 44 44 45 46 42 40 40 43 46 47 49 54 59 61 62 63 64 66 68 72 73 74 74 75 75 74 72 70 68 66 64 64 63 62 61 57 51 50 48 45 44 41 39 36 35 34 33 33 33 32 30 29 28 27 26 25 24 23 23 23 23 23 23 24 24 24 24 22 19 16 15 13 13 13 12 12 12 11
32 37 39 42 44 40 32 28 29 29 31 35 39 42 44 43 40 42 44 43 44 47 45 42 39 37 39 43 44 44 48 55 59 60 61 61 62 63 65 67 69 70 71 70 68 67 65 64 62 60 60 60 59 58 54 49 47 44 42 42 40 38 36 33 33 33 33 33 32 31 29 29 28 27 26 27 27 28 28 28 28 27 27 26 26 24 21 17 15 14 13 12 11 10 9 9 8
32 36 40 42 40 36 31 28 28 28 29 32 35 37 38 36 34 35 36 37 41 42 36 33 32 29 32 38 43 43 45 52 59 63 64 65 66 66 66 67 69 71 70 65 62 62 60 59 58 56 56 55 54 53 51 47 46 44 42 42 42 40 38 36 35 34 35 34 34 33 33 33 32 32 31 32 32 32 32 30 29 28 27 26 25 22 17 14 12 10 9 8 7 7 6 5 5
32 35 36 36 34 33 31 29 30 30 31 33 36 37 35 32 31 31 31 32 34 32 26 26 27 26 28 32 36 40 43 48 55 60 64 67 68 69 70 71 72 72 69 65 63 62 60 59 58 57 56 54 52 52 51 49 48 47 46 46 45 43 41 40 39 38 38 37 37 38 38 37 37 36 35 35 34 33 31 29 28 26 26 24 21 18 13 10 8 7 6 5 4 4 4 3 3
30 32 30 30 30 30 30 30 31 31 31 32 34 35 32 30 30 30 30 32 29 25 24 26 27 27 28 30 33 35 38 43 48 53 57 62 66 67 69 71 73 71 68 66 63 61 59 58 58 57 56 54 53 53 53 53 52 51 50 49 48 47 45 44 43 42 41 41 40 40 40 39 37 36 35 33 31 29 27 24 24 22 21 19 16 13 10 8 6 5 4 4 3 3 3 3 3
28 30 27 26 27 27 28 29 30 30 29 29 30 30 28 28 28 27 29 30 26 23 25 28 28 29 29 31 33 34 35 37 42 47 49 52 56 59 62 64 65 65 63 62 60 57 56 56 55 54 54 53 53 53 53 54 54 52 50 49 48 47 46 46 45 44 42 42 41 40 38 36 34 32 30 28 25 23 21 19 18 17 16 13 12 9 7 6 5 4 4 3 3 3 3 3 3
27 29 26 24 25 26 26 28 28 28 27 27 27 26 24 24 25 24 26 25 21 21 24 27 28 28 29 29 31 34 36 36 38 43 47 49 50 53 54 56 56 56 57 57 56 55 54 54 53 52 51 52 52 52 52 51 51 50 49 48 47 47 46 45 44 42 40 38 36 34 31 29 27 26 25 22 20 18 17 17 16 14 12 11 10 8 7 5 4 4 4 3 3 3 3 3 3
24 24 22 22 22 23 24 25 25 25 25 24 23 22 20 20 21 20 20 19 18 19 21 22 24 25 26 27 28 31 34 37 39 41 45 49 51 53 53 54 54 54 55 55 54 53 53 52 51 51 51 51 51 51 50 49 49 47 46 45 44 43 42 40 38 35 33 31 30 28 26 24 23 22 21 20 18 17 17 16 14 12 11 10 10 8 6 6 5 4 4 4 4 3 4 4 4
19 19 19 19 19 20 21 21 22 21 20 20 19 20 19 18 19 17 16 17 17 17 18 18 20 21 22 23 24 26 29 32 35 37 41 45 48 50 51 52 51 52 53 53 52 52 51 51 51 50 51 50 49 48 47 46 44 42 40 39 36 35 34 33 31 30 29 27 27 26 25 23 22 21 20 19 18 18 16 14 12 10 10 10 9 8 7 6 6 5 4 4 4 4 4 4 4
16 16 16 18 18 17 18 18 18 18 18 17 18 19 17 17 18 16 15 16 16 16 16 16 17 18 19 21 22 23 25 27 30 32 34 37 39 41 43 44 45 47 47 47 48 47 47 48 48 47 47 46 45 43 41 40 39 37 35 34 33 31 30 30 28 28 27 26 25 25 25 24 23 22 20 19 18 18 16 13 11 10 10 10 10 8 7 7 6 6 5 5 4 4 4 5 5
16 15 16 19 20 18 17 18 17 17 17 16 18 18 16 17 17 15 15 16 15 15 15 14 15 15 16 18 20 21 22 24 27 28 29 30 32 34 36 37 40 41 41 42 42 41 42 42 42 42 41 41 40 38 37 36 36 35 34 32 32 31 30 29 28 27 26 25 25 25 25 24 23 22 20 19 18 18 15 12 10 10 10 10 10 9 8 7 7 6 6 6 5 5 5 5 5
15 16 16 20 21 20 18 17 17 17 18 17 19 20 16 16 16 14 14 15 14 14 13 13 13 14 14 15 17 19 20 22 24 24 25 27 29 31 32 34 36 36 37 38 38 37 38 38 38 38 38 37 37 36 35 34 34 34 33 33 33 32 31 29 28 27 26 25 25 25 25 25 24 22 21 20 19 17 14 12 11 10 10 10 10 10 9 8 8 7 7 7 6 6 6 5 6
17 16 21 23 19 22 21 17 19 18 19 18 20 22 16 13 14 12 12 13 13 13 11 11 11 11 11 12 13 15 17 19 21 22 23 25 27 29 30 31 32 34 35 35 35 35 36 36 36 36 36 36 35 35 34 33 33 34 34 33 33 33 32 30 29 28 27 27 26 26 26 25 25 24 22 21 19 17 14 12 12 11 11 11 11 11 10 10 9 8 8 8 7 6 6 6 6
23 16 21 26 20 24 24 19 20 19 20 19 19 22 16 11 12 10 11 11 12 11 10 9 9 9 9 9 10 11 13 15 18 20 22 24 25 26 27 28 29 31 32 33 33 34 35 35 35 35 35 35 35 34 34 33 33 34 34 33 34 34 33 31 30 28 28 28 27 27 26 26 26 25 24 23 21 17 14 13 12 12 12 12 12 12 11 11 10 10 9 9 8 7 7 6 7
28 19 19 25 22 23 22 18 20 18 18 17 17 19 15 12 11 9 10 10 11 11 10 10 9 9 9 8 9 8 9 12 14 16 18 20 21 23 24 25 26 28 29 31 33 34 34 35 35 35 35 34 35 35 35 35 34 34 34 34 34 34 34 32 31 29 29 29 29 28 28 27 27 27 26 25 22 18 15 14 13 13 13 13 13 13 12 12 12 12 11 10 10 9 8 7 7
27 26 22 24 23 22 21 18 18 16 16 16 16 17 13 12 12 11 11 10 11 12 12 12 11 10 10 9 9 9 9 9 10 11 13 14 16 18 20 22 24 26 28 30 32 33 34 35 35 36 36 35 35 36 35 35 35 35 35 35 34 34 34 33 32 31 29 29 30 30 30 29 29 28 27 26 23 20 18 16 15 14 14 14 14 14 14 14 13 13 13 13 12 11 10 10 9
22 25 23 23 24 22 20 19 18 17 17 17 18 17 15 14 14 13 13 13 12 13 13 12 12 12 11 11 11 10 10 9 9 9 9 11 12 13 16 19 22 24 25 27 30 32 34 34 35 35 35 35 36 36 36 36 36 36 36 35 35 34 34 33 32 32 31 31 31 31 31 30 30 29 28 27 25 23 20 19 18 17 16 16 16 16 16 16 16 16 15 15 15 14 13 12 11
21 24 24 23 22 20 20 22 23 20 18 20 20 18 17 16 16 15 14 14 14 14 14 14 14 13 13 12 12 11 11 10 9 9 9 10 11 11 13 15 18 20 22 24 26 29 32 33 34 34 34 35 36 37 37 37 37 36 36 35 35 34 34 34 33 33 33 33 32 32 32 32 32 31 30 28 27 25 24 22 21 20 19 18 18 17 17 17 17 17 17 17 16 16 15 14 13
22 24 25 24 23 21 19 21 24 23 19 22 22 20 20 17 16 14 12 12 13 15 16 15 15 14 14 13 13 12 11 10 9 10 10 10 10 11 12 13 15 18 20 22 24 25 28 30 32 32 33 35 36 36 37 37 37 36 37 36 36 36 36 35 35 35 35 35 35 35 34 35 34 33 31 30 28 27 26 25 24 22 21 20 19 19 19 18 18 18 18 18 18 18 19 17 15
23 24 24 23 24 21 18 20 24 24 19 21 21 18 15 14 13 12 11 12 13 14 14 15 14 13 14 14 13 13 12 11 11 12 12 11 11 11 12 12 13 15 17 18 20 21 24 27 29 31 33 34 34 35 36 36 37 37 37 37 37 36 36 36 36 36 37 37 37 37 36 36 35 33 32 30 29 28 27 26 25 24 23 22 21 20 20 19 19 19 19 19 20 20 21 20 18
23 24 21 20 22 20 19 21 25 24 17 16 18 15 13 13 13 12 13 13 13 12 13 13 13 13 13 13 12 13 12 12 12 12 12 12 13 13 13 14 14 14 15 17 18 20 22 25 27 30 33 33 34 34 35 35 36 37 38 38 38 37 37 37 37 37 37 37 37 37 36 35 34 32 31 30 29 29 28 28 27 27 26 25 24 23 22 21 21 21 21 21 22 22 23 22 21
22 22 18 17 19 17 17 21 24 23 18 17 19 17 15 13 14 14 13 14 13 13 14 14 14 14 13 12 12 13 12 12 12 12 12 13 14 15 15 15 15 16 16 18 19 21 23 24 26 28 31 32 33 34 35 35 36 37 37 37 37 37 36 37 37 37 36 36 36 36 35 34 33 32 32 31 31 31 31 31 30 30 29 28 27 26 25 25 24 24 24 24 25 25 25 25 25
23 23 17 16 18 17 18 21 22 19 18 22 22 16 14 15 18 17 13 15 15 14 15 15 14 14 13 14 13 13 12 12 12 12 12 13 13 14 15 15 16 16 17 17 18 19 21 23 25 26 29 30 32 34 35 36 36 36 36 36 36 36 36 36 36 37 37 37 37 37 37 37 37 36 36 36 36 36 35 34 34 33 33 32 31 30 29 29 28 28 28 28 28 28 29 29 29
21 21 18 19 20 19 21 23 19 14 15 20 21 18 17 17 18 17 15 18 18 16 18 16 14 13 13 14 13 12 12 11 11 11 12 13 13 14 15 15 16 16 16 16 17 18 19 21 23 24 26 28 30 32 34 35 35 35 35 34 35 35 35 36 36 37 38 39 38 39 40 40 40 39 39 39 38 38 38 38 38 37 36 36 35 34 33 32 32 31 31 30 31 31 31 31 31
17 20 23 25 24 21 22 22 17 15 15 16 20 22 20 16 14 16 19 20 19 17 18 17 14 12 12 13 12 12 12 11 11 11 12 13 14 15 15 15 16 16 16 16 17 18 19 20 22 23 25 26 27 29 30 32 33 33 33 32 33 33 33 34 35 36 37 38 38 38 39 39 40 40 39 39 39 40 40 40 40 40 39 39 37 36 35 35 35 34 33 33 33 34 34 34 36
20 23 26 26 23 21 23 22 19 19 19 20 24 24 25 21 15 18 22 19 18 17 17 18 15 12 12 13 13 13 13 12 12 13 13 14 15 15 16 16 17 17 17 18 19 20 20 21 22 23 25 26 26 28 28 30 30 31 32 32 32 32 32 33 36 37 38 38 38 38 38 39 39 39 39 39 39 40 40 40 40 40 40 40 40 40 39 38 38 37 37 37 37 37 37 38 39
21 26 28 26 24 24 26 26 25 28 25 24 28 26 28 27 16 18 22 16 17 18 18 19 17 14 13 14 14 15 15 14 14 14 15 16 16 16 16 16 17 17 18 19 20 20 21 21 23 24 25 26 27 28 29 30 31 31 32 32 32 33 33 34 35 36 36 37 37 37 38 39 39 40 40 41 42 42 43 43 43 43 43 43 43 43 43 42 42 41 41 41 40 40 41 41 40
22 28 29 29 31 31 29 28 29 34 31 26 28 26 27 26 16 17 19 16 19 20 19 21 19 15 15 15 16 16 16 16 15 15 16 17 17 17 17 17 18 18 18 19 19 20 21 22 23 24 25 26 27 29 30 31 31 32 33 34 34 34 34 35 35 35 36 37 36 37 39 39 40 41 42 43 44 45 46 46 46 46 46 46 46 46 46 46 46 46 45 45 45 45 45 44 44
25 27 25 25 31 31 32 36 34 35 36 30 28 28 28 27 19 16 19 20 22 20 18 20 19 17 17 17 18 18 18 18 17 17 17 18 18 19 19 20 19 19 19 20 20 20 21 21 22 23 24 25 27 28 29 30 31 32 33 33 34 34 34 35 35 36 36 37 36 37 38 39 40 40 42 43 44 45 46 47 47 47 47 47 47 47 47 47 48 48 48 48 47 47 47 47 47
26 25 23 19 23 25 28 39 37 34 37 34 31 32 32 30 22 17 20 23 24 22 20 19 19 19 19 18 19 19 19 20 20 19 18 18 19 19 19 19 20 20 21 21 20 20 21 21 22 22 23 24 25 27 28 29 31 32 32 33 33 33 33 34 34 34 35 36 36 37 37 38 38 39 40 40 42 43 44 44 45 45 45 45 45 45 45 45 45 46 46 46 46 46 47 48 47
26 24 26 23 26 25 26 36 37 35 36 31 32 36 33 29 21 17 20 21 22 23 22 21 21 21 20 19 20 19 20 21 22 22 21 20 20 20 19 19 19 20 20 20 21 21 21 21 22 22 22 23 25 26 27 29 30 31 31 32 32 32 33 33 34 33 34 34 34 35 36 36 36 37 37 38 39 41 41 41 42 43 44 44 44 44 44 44 44 44 44 44 44 45 46 47 47
24 22 26 27 27 25 28 37 34 31 32 28 30 35 32 26 21 21 21 19 20 22 21 21 21 21 21 21 20 20 21 23 23 23 23 23 22 22 21 19 19 20 20 20 21 22 22 22 23 23 23 24 25 26 28 29 30 30 31 31 32 32 32 32 32 33 33 33 34 35 35 35 36 37 38 39 40 41 42 42 44 44 45 46 46 47 47 47 46 46 45 45 45 45 45 45 45
26 24 24 26 27 23 28 37 32 28 33 31 27 29 29 24 22 24 23 21 21 21 21 21 20 20 20 20 21 21 22 23 23 23 23 23 24 24 23 21 21 21 21 21 21 21 22 23 23 24 26 27 27 27 28 29 30 30 31 32 33 33 33 33 33 32 33 34 34 35 35 36 37 38 40 41 43 44 44 45 46 47 48 49 50 50 51 51 51 51 50 49 49 48 48 47 47
26 26 23 26 29 24 26 33 31 28 33 33 28 27 28 23 20 22 22 22 23 22 22 22 21 21 20 20 21 21 22 23 23 24 25 25 25 24 24 23 23 22 23 22 22 22 23 24 25 26 28 30 30 30 30 31 31 31 32 32 33 34 35 35 35 34 34 34 35 35 36 37 38 39 41 43 45 46 47 48 49 49 50 52 53 54 55 55 56 56 55 55 54 54 53 53 52
23 24 24 27 27 23 25 31 31 30 32 31 26 23 24 22 21 24 24 24 24 24 24 23 23 23 21 21 21 21 22 23 24 26 27 29 28 26 25 24 23 24 25 26 25 25 25 25 26 27 28 31 32 33 34 34 34 34 34 35 34 34 35 36 37 37 37 37 37 37 37 38 39 41 42 44 46 47 49 50 51 52 53 54 55 56 57 58 59 59 58 58 58 57 57 57 57
24 24 25 25 25 26 29 29 31 34 34 31 26 25 27 26 24 26 27 27 27 27 26 25 25 25 23 24 24 24 24 23 24 25 26 28 29 27 27 26 26 27 29 29 28 28 28 28 28 29 31 33 35 36 37 38 39 39 38 38 37 37 36 37 38 39 40 41 40 40 41 41 42 44 45 45 46 48 49 51 52 53 54 55 56 57 58 59 61 60 60 60 59 60 60 59 60
24 26 25 24 27 32 33 30 32 36 35 36 33 30 32 32 29 30 31 31 31 30 29 28 28 28 27 28 27 27 25 24 25 26 26 27 27 27 27 26 27 30 31 31 30 30 31 31 32 33 35 36 37 37 38 39 41 41 41 41 41 40 39 39 40 42 44 45 45 45 45 45 46 47 48 48 49 49 50 52 53 54 56 57 58 59 60 62 63 62 62 62 62 62 62 62 62
24 25 27 27 29 33 32 31 35 36 33 37 39 33 32 34 34 34 35 34 33 34 33 32 32 32 33 33 32 31 29 28 28 28 28 29 29 29 28 27 29 31 32 32 32 32 33 34 35 37 39 39 39 39 39 40 41 41 42 43 44 43 42 42 43 45 47 48 50 51 50 50 50 51 52 52 52 52 54 54 55 56 57 59 61 62 63 64 65 64 64 64 64 65 65 64 64
27 27 29 29 27 29 32 31 34 35 33 39 42 37 34 35 35 36 36 36 36 36 36 36 36 37 38 38 37 35 34 34 32 31 31 31 32 32 31 32 33 33 34 34 35 36 37 38 40 41 43 43 43 43 43 43 43 43 43 44 46 45 44 43 44 46 48 49 51 52 52 53 53 54 55 56 56 56 57 58 58 58 59 61 63 65 65 67 67 66 67 67 67 68 68 67 68
27 28 30 30 28 31 32 32 34 33 35 42 43 39 38 37 35 36 36 36 38 37 38 40 40 41 42 41 41 39 39 41 40 38 36 35 36 36 36 37 36 37 38 39 40 41 42 43 45 46 47 47 47 48 48 48 48 48 48 48 49 48 47 47 47 48 50 51 53 54 54 54 54 55 58 59 59 60 61 62 62 62 62 63 66 68 69 70 70 70 70 70 71 71 71 71 71